CW0104 Weather Reports


time (UTC)temp
C
wind
direction
speed
KPH
gust
KPH
rain 1hr
cm
rain 24hr
cm
rain mn
cm
humidity
%
barometer
mb
20210723144002 22 341 0.0 8.0 0.00 0.03 0.00 64 1018.8
20210723143451 22 332 0.0 9.7 0.00 0.03 0.00 66 1018.8
20210723142948 22 326 0.0 9.7 0.00 0.03 0.00 65 1018.9
20210723142448 22 335 0.0 8.0 0.00 0.03 0.00 68 1018.9
20210723141944 22 17 0.0 9.7 0.00 0.03 0.00 68 1018.9
20210723141443 21 17 0.0 9.7 0.00 0.03 0.00 68 1019.0
20210723140939 21 323 1.6 17.7 0.00 0.03 0.00 68 1019.0
20210723140430 21 324 1.6 17.7 0.00 0.03 0.00 68 1019.0
20210723135929 21 343 0.0 9.7 0.00 0.03 0.00 70 1019.0
20210723135423 21 331 0.0 14.5 0.00 0.03 0.00 70 1019.0
20210723134907 21 314 1.6 14.5 0.00 0.03 0.00 71 1019.1
20210723134404 21 358 4.8 14.5 0.00 0.03 0.00 72 1019.1
20210723133855 20 347 1.6 14.5 0.00 0.03 0.00 71 1019.1
20210723133350 20 314 4.8 17.7 0.00 0.03 0.00 72 1019.0
20210723132849 20 314 4.8 17.7 0.00 0.03 0.00 75 1019.0
20210723132348 19 3 4.8 14.5 0.00 0.03 0.00 78 1019.0
20210723131848 19 338 1.6 14.5 0.00 0.03 0.00 79 1019.2
20210723131348 19 337 1.6 16.1 0.00 0.03 0.00 80 1019.2
20210723130826 19 340 1.6 16.1 0.00 0.03 0.00 81 1019.2
20210723130327 19 339 0.0 12.9 0.00 0.03 0.00 82 1018.9
20210723125822 18 321 0.0 12.9 0.00 0.03 0.00 83 1018.9
20210723125323 18 339 0.0 17.7 0.00 0.03 0.00 83 1018.9
20210723124815 18 335 4.8 17.7 0.00 0.03 0.00 83 1018.8
20210723124309 18 333 4.8 14.5 0.00 0.03 0.00 84 1018.8
20210723123805 18 335 1.6 14.5 0.00 0.03 0.00 86 1018.8
20210723123247 18 340 0.0 1.6 0.00 0.03 0.00 87 1018.8
20210723122727 18 340 0.0 1.6 0.00 0.03 0.00 87 1018.8
20210723122226 18 333 0.0 1.6 0.00 0.03 0.00 88 1018.8
20210723121719 18 327 0.0 8.0 0.00 0.03 0.00 88 1018.8
20210723121215 18 326 1.6 14.5 0.00 0.03 0.00 89 1018.8
20210723120707 18 312 1.6 14.5 0.00 0.03 0.00 89 1018.8
20210723120204 18 333 0.0 9.7 0.00 0.03 0.00 90 1018.7
20210723115705 17 340 0.0 6.4 0.00 0.03 0.00 90 1018.7
20210723115159 17 342 0.0 6.4 0.00 0.03 0.00 90 1018.7
20210723114658 17 337 0.0 1.6 0.00 0.03 0.00 90 1018.7
20210723114149 17 336 0.0 1.6 0.00 0.03 0.00 90 1018.7
20210723113648 17 336 0.0 1.6 0.00 0.03 0.00 90 1018.7
20210723113126 17 336 0.0 8.0 0.00 0.03 0.00 90 1018.7
20210723112618 17 336 0.0 8.0 0.00 0.03 0.00 90 1018.7
20210723112114 17 347 0.0 4.8 0.00 0.03 0.00 91 1018.7
20210723111613 17 348 0.0 1.6 0.00 0.03 0.00 91 1018.6
20210723111105 17 348 0.0 1.6 0.00 0.03 0.00 91 1018.6
20210723110555 17 333 0.0 1.6 0.00 0.03 0.00 91 1018.6
20210723110049 17 334 0.0 0.0 0.00 0.03 0.00 91 1018.5
20210723105549 17 320 0.0 4.8 0.00 0.03 0.00 91 1018.5
20210723105048 17 320 0.0 6.4 0.00 0.03 0.00 91 1018.5
20210723104526 17 320 0.0 6.4 0.00 0.03 0.00 91 1018.3
20210723104021 17 320 0.0 0.0 0.00 0.03 0.00 91 1018.3
20210723103516 17 320 0.0 0.0 0.00 0.03 0.00 91 1018.3
20210723103004 17 320 0.0 0.0 0.00 0.03 0.00 91 1018.2
20210723102453 17 320 0.0 0.0 0.00 0.03 0.00 91 1018.2
20210723101949 17 320 0.0 1.6 0.00 0.03 0.00 91 1018.2
20210723101428 17 320 0.0 1.6 0.00 0.03 0.00 91 1018.2
20210723100925 17 320 0.0 1.6 0.00 0.03 0.00 91 1018.2
20210723100357 17 320 0.0 1.6 0.00 0.03 0.00 91 1018.2
20210723095853 17 320 0.0 0.0 0.00 0.03 0.00 91 1018.0
20210723095344 17 320 0.0 0.0 0.00 0.03 0.00 91 1018.0
20210723094837 17 320 0.0 0.0 0.00 0.03 0.00 92 1017.8
20210723094328 17 320 0.0 0.0 0.00 0.03 0.00 92 1017.8
20210723093810 17 320 0.0 0.0 0.00 0.03 0.00 92 1017.8
20210723093306 17 320 0.0 0.0 0.00 0.03 0.00 92 1017.7
20210723092748 17 320 0.0 0.0 0.00 0.03 0.00 92 1017.7
20210723092244 17 320 0.0 0.0 0.00 0.03 0.00 93 1017.7
20210723091736 17 320 0.0 0.0 0.00 0.03 0.00 93 1017.5
20210723091237 17 320 0.0 0.0 0.00 0.03 0.00 93 1017.5
20210723090735 17 320 0.0 0.0 0.00 0.03 0.00 93 1017.5
20210723090214 17 320 0.0 0.0 0.00 0.03 0.00 93 1017.4
20210723085714 17 320 0.0 0.0 0.00 0.03 0.00 93 1017.4
20210723085143 18 320 0.0 0.0 0.00 0.03 0.00 93 1017.4
20210723084645 18 320 0.0 0.0 0.00 0.03 0.00 93 1017.2
20210723084135 18 320 0.0 0.0 0.00 0.03 0.00 93 1017.2
20210723083633 18 320 0.0 0.0 0.00 0.03 0.00 94 1017.2
20210723083128 18 320 0.0 0.0 0.00 0.03 0.00 94 1017.2
20210723082610 18 320 0.0 0.0 0.00 0.03 0.00 94 1017.2
20210723082105 18 320 0.0 0.0 0.00 0.03 0.00 94 1017.2
20210723081600 18 320 0.0 0.0 0.00 0.03 0.00 94 1017.1
20210723081052 18 320 0.0 0.0 0.00 0.03 0.00 94 1017.1
20210723080551 18 320 0.0 0.0 0.00 0.03 0.00 94 1017.1
20210723080040 18 320 0.0 0.0 0.00 0.03 0.00 94 1017.2
20210723075534 18 320 0.0 0.0 0.00 0.03 0.00 94 1017.2
20210723075020 18 320 0.0 0.0 0.00 0.03 0.00 94 1017.2
20210723074512 18 320 0.0 0.0 0.00 0.03 0.00 94 1017.1
20210723074007 18 320 0.0 0.0 0.00 0.03 0.00 94 1017.1
20210723073459 18 320 0.0 0.0 0.00 0.03 0.00 94 1017.1
20210723072953 18 320 0.0 1.6 0.00 0.03 0.00 94 1017.2
20210723072452 18 320 0.0 1.6 0.00 0.03 0.00 95 1017.2
20210723071954 18 320 0.0 1.6 0.00 0.03 0.00 95 1017.2
20210723071437 18 320 0.0 1.6 0.00 0.03 0.00 95 1017.2
20210723070930 18 320 0.0 1.6 0.00 0.03 0.00 95 1017.2
20210723070414 18 320 0.0 1.6 0.00 0.03 0.00 95 1017.2
20210723065908 18 320 0.0 1.6 0.00 0.03 0.00 95 1017.4
20210723065402 18 320 0.0 1.6 0.00 0.03 0.00 95 1017.4
20210723064856 18 320 0.0 0.0 0.00 0.03 0.00 95 1017.4
20210723064349 18 320 0.0 0.0 0.00 0.03 0.00 95 1017.5
20210723063828 18 320 0.0 0.0 0.00 0.03 0.00 95 1017.5
20210723063324 18 320 0.0 0.0 0.00 0.03 0.00 95 1017.6
20210723062806 18 320 0.0 0.0 0.00 0.03 0.00 95 1017.6
20210723062259 18 320 0.0 0.0 0.00 0.03 0.00 95 1017.6
20210723061744 18 320 0.0 0.0 0.00 0.03 0.00 95 1017.6
20210723061236 18 320 0.0 0.0 0.00 0.03 0.00 95 1017.6
20210723060730 18 320 0.0 0.0 0.00 0.03 0.00 95 1017.6
20210723060220 18 320 0.0 0.0 0.00 0.03 0.00 95 1017.6
20210723055717 18 320 0.0 0.0 0.00 0.03 0.00 95 1017.6
20210723055203 18 320 0.0 0.0 0.00 0.03 0.00 95 1017.6
20210723054700 18 320 0.0 0.0 0.00 0.03 0.00 95 1017.7
20210723054154 18 320 0.0 0.0 0.00 0.03 0.00 95 1017.7
20210723053651 18 320 0.0 0.0 0.00 0.03 0.00 96 1017.7
20210723053145 18 320 0.0 0.0 0.00 0.03 0.00 96 1017.7
20210723052627 18 320 0.0 0.0 0.00 0.03 0.00 96 1017.7
20210723052125 18 320 0.0 0.0 0.00 0.03 0.00 96 1017.7
20210723051605 18 320 0.0 0.0 0.00 0.03 0.00 96 1017.7
20210723051101 18 320 0.0 0.0 0.00 0.03 0.00 96 1017.7
20210723050548 18 320 0.0 0.0 0.00 0.03 0.00 96 1017.7
20210723050048 18 320 0.0 0.0 0.00 0.03 0.00 96 1017.8
20210723045547 18 320 0.0 0.0 0.00 0.03 0.00 96 1017.8
20210723045045 18 320 0.0 0.0 0.00 0.03 0.00 96 1017.8
20210723044529 18 320 0.0 0.0 0.00 0.03 0.00 96 1017.7
20210723044023 18 320 0.0 0.0 0.00 0.03 0.00 96 1017.7
20210723043507 18 320 0.0 0.0 0.00 0.03 0.00 96 1017.7
20210723043001 18 320 0.0 0.0 0.00 0.03 0.00 96 1017.9
20210723042455 18 320 0.0 0.0 0.00 0.03 0.00 96 1017.9
20210723041954 18 320 0.0 0.0 0.00 0.03 0.00 96 1017.9
20210723041453 18 320 0.0 0.0 0.00 0.03 0.00 96 1018.1
20210723040934 18 320 0.0 0.0 0.00 0.03 0.00 96 1018.1
20210723040430 18 320 0.0 0.0 0.00 0.03 0.00 96 1018.1
20210723035910 18 320 0.0 0.0 0.00 0.03 0.03 96 1017.9
20210723035400 18 320 0.0 0.0 0.00 0.03 0.03 96 1017.9
20210723034848 18 320 0.0 0.0 0.00 0.03 0.03 96 1018.0
20210723034338 18 320 0.0 0.0 0.00 0.03 0.03 96 1018.0
20210723033837 18 320 0.0 0.0 0.00 0.03 0.03 96 1018.0
20210723033337 18 320 0.0 0.0 0.00 0.03 0.03 96 1018.0
20210723032824 18 320 0.0 0.0 0.00 0.03 0.03 96 1018.0
20210723032318 18 320 0.0 0.0 0.00 0.03 0.03 96 1018.0
20210723031802 18 320 0.0 0.0 0.00 0.03 0.03 96 1018.2
20210723031256 18 320 0.0 0.0 0.00 0.03 0.03 95 1018.2
20210723030754 18 320 0.0 0.0 0.00 0.03 0.03 96 1018.2
20210723030257 18 320 0.0 0.0 0.00 0.03 0.03 95 1018.1
20210723025749 18 320 0.0 0.0 0.00 0.03 0.03 96 1018.1
20210723025243 18 320 0.0 0.0 0.00 0.03 0.03 95 1018.1
20210723024726 18 320 0.0 0.0 0.00 0.03 0.03 95 1017.9
20210723024210 18 320 0.0 0.0 0.00 0.03 0.03 95 1017.9
20210723023704 18 320 0.0 0.0 0.00 0.03 0.03 95 1017.9
20210723023157 18 320 0.0 0.0 0.00 0.03 0.03 95 1017.8
20210723022652 18 320 0.0 0.0 0.00 0.03 0.03 94 1017.8
20210723022146 18 320 0.0 0.0 0.00 0.03 0.03 94 1017.8
20210723021640 18 320 0.0 0.0 0.00 0.03 0.03 94 1017.7
20210723021134 18 320 0.0 0.0 0.00 0.03 0.03 93 1017.7
20210723020631 18 320 0.0 0.0 0.00 0.03 0.03 93 1017.7
20210723020130 18 320 0.0 0.0 0.00 0.03 0.03 93 1017.7
20210723015624 18 320 0.0 0.0 0.00 0.03 0.03 92 1017.7
20210723015112 18 320 0.0 0.0 0.00 0.03 0.03 91 1017.7
20210723014600 19 320 0.0 0.0 0.00 0.03 0.03 91 1017.6
20210723014056 19 320 0.0 0.0 0.00 0.03 0.03 90 1017.6
20210723013548 19 320 0.0 0.0 0.00 0.03 0.03 90 1017.6
20210723013049 19 320 0.0 0.0 0.00 0.03 0.03 89 1017.3
20210723012548 19 320 0.0 0.0 0.00 0.03 0.03 89 1017.3
20210723012042 19 320 0.0 0.0 0.00 0.03 0.03 88 1017.3
20210723011530 19 320 0.0 0.0 0.00 0.03 0.03 88 1017.2
20210723011019 19 320 0.0 0.0 0.00 0.03 0.03 87 1017.2
20210723010515 20 320 0.0 0.0 0.00 0.03 0.03 87 1017.2
20210723010004 19 320 0.0 6.4 0.00 0.03 0.03 88 1017.2
20210723005451 19 320 0.0 6.4 0.00 0.03 0.03 89 1017.2
20210723004933 19 355 0.0 0.0 0.00 0.03 0.03 91 1017.2
20210723004423 20 355 0.0 0.0 0.00 0.03 0.03 93 1017.2
20210723003915 20 355 0.0 0.0 0.00 0.03 0.03 94 1017.2
20210723003408 20 355 0.0 0.0 0.00 0.03 0.03 95 1017.2
20210723002907 20 355 0.0 0.0 0.00 0.03 0.03 95 1017.0
20210723002405 20 355 0.0 0.0 0.00 0.03 0.03 95 1017.0
20210723001859 20 355 0.0 1.6 0.00 0.03 0.03 95 1017.0
20210723001400 20 355 0.0 1.6 0.00 0.03 0.03 95 1016.7
20210723000858 20 358 0.0 0.0 0.00 0.03 0.03 94 1016.7
20210723000353 20 358 0.0 0.0 0.00 0.03 0.03 93 1016.7
20210722235843 20 358 0.0 0.0 0.00 0.03 0.03 92 1016.7
20210722235343 20 358 0.0 0.0 0.00 0.03 0.03 92 1016.7
20210722234833 20 358 0.0 0.0 0.00 0.03 0.03 92 1016.7
20210722234317 21 358 0.0 0.0 0.00 0.03 0.03 91 1016.7
20210722233819 20 358 0.0 0.0 0.03 0.03 0.03 91 1016.7
20210722233312 20 358 0.0 0.0 0.03 0.03 0.03 91 1016.6
20210722232812 20 358 0.0 0.0 0.03 0.03 0.03 90 1016.6
20210722232305 20 358 0.0 0.0 0.03 0.03 0.03 89 1016.6
20210722231752 20 358 0.0 0.0 0.03 0.03 0.03 88 1016.4
20210722231243 20 358 0.0 0.0 0.03 0.03 0.03 88 1016.4
20210722230736 20 358 0.0 0.0 0.03 0.03 0.03 86 1016.4
20210722230217 20 358 0.0 0.0 0.03 0.03 0.03 85 1016.2
20210722225716 21 358 0.0 0.0 0.03 0.03 0.03 83 1016.2
20210722225215 21 358 0.0 0.0 0.03 0.03 0.03 81 1016.2
20210722224715 21 358 0.0 0.0 0.03 0.03 0.03 78 1016.6
20210722224205 22 358 0.0 0.0 0.03 0.03 0.03 77 1016.6
20210722223649 22 358 0.0 0.0 0.00 0.00 0.00 76 1016.6
20210722223143 23 3 0.0 0.0 0.00 0.00 0.00 78 1016.1
20210722222635 23 3 0.0 0.0 0.00 0.00 0.00 77 1016.1
20210722222129 23 3 0.0 0.0 0.00 0.00 0.00 75 1016.1
20210722221621 23 3 0.0 0.0 0.00 0.00 0.00 75 1016.1
20210722221113 23 3 0.0 0.0 0.00 0.00 0.00 74 1016.1
20210722220605 23 3 0.0 0.0 0.00 0.00 0.00 75 1016.1
20210722220051 23 3 0.0 0.0 0.00 0.00 0.00 76 1016.1
20210722215525 23 3 0.0 0.0 0.00 0.00 0.00 73 1016.1
20210722215019 23 3 0.0 0.0 0.00 0.00 0.00 75 1016.1
20210722214504 23 3 0.0 0.0 0.00 0.00 0.00 74 1016.1
20210722213956 23 3 0.0 0.0 0.00 0.00 0.00 74 1016.1
20210722213456 23 3 0.0 0.0 0.00 0.00 0.00 72 1016.1
20210722212944 23 3 0.0 0.0 0.00 0.00 0.00 70 1016.1
20210722212428 23 3 0.0 0.0 0.00 0.00 0.00 68 1016.1
20210722211914 24 3 0.0 0.0 0.00 0.00 0.00 66 1016.1
20210722211405 23 3 0.0 0.0 0.00 0.00 0.00 62 1016.0
20210722210849 23 3 0.0 1.6 0.00 0.00 0.00 64 1016.0
20210722210336 23 3 0.0 1.6 0.00 0.00 0.00 64 1015.8
20210722205827 23 336 0.0 0.0 0.00 0.00 0.00 63 1015.8
20210722205319 23 336 0.0 0.0 0.00 0.00 0.00 63 1015.8
20210722204803 23 336 0.0 0.0 0.00 0.00 0.00 61 1015.7
20210722204257 23 336 0.0 0.0 0.00 0.00 0.00 60 1015.7
20210722203746 23 336 0.0 0.0 0.00 0.00 0.00 59 1015.7
20210722203233 24 336 0.0 0.0 0.00 0.00 0.00 61 1015.8
20210722202714 24 336 0.0 0.0 0.00 0.00 0.00 62 1015.8
20210722202205 24 336 0.0 0.0 0.00 0.00 0.00 61 1015.8
20210722201656 24 336 0.0 0.0 0.00 0.00 0.00 59 1015.7
20210722201152 24 336 0.0 0.0 0.00 0.00 0.00 62 1015.8
20210722200648 25 336 0.0 0.0 0.00 0.00 0.00 59 1015.8
20210722200140 25 336 0.0 6.4 0.00 0.00 0.00 53 1015.7
20210722195634 25 336 0.0 9.7 0.00 0.00 0.00 54 1015.7
20210722195128 25 341 0.0 6.4 0.00 0.00 0.00 50 1015.7
20210722194624 26 339 0.0 8.0 0.00 0.00 0.00 47 1015.8
20210722194111 26 343 0.0 8.0 0.00 0.00 0.00 50 1015.8
20210722193611 25 330 0.0 8.0 0.00 0.00 0.00 52 1015.8
20210722193104 25 337 0.0 1.6 0.00 0.00 0.00 51 1015.8
20210722192601 25 337 0.0 1.6 0.00 0.00 0.00 50 1015.8
20210722192053 25 326 0.0 9.7 0.00 0.00 0.00 52 1015.8
20210722191541 25 326 0.0 9.7 0.00 0.00 0.00 50 1015.9
20210722191040 25 314 1.6 9.7 0.00 0.00 0.00 50 1015.9
20210722190535 25 3 1.6 9.7 0.00 0.00 0.00 52 1015.9
20210722190029 25 38 1.6 8.0 0.00 0.00 0.00 53 1016.1
20210722185524 25 344 1.6 16.1 0.00 0.00 0.00 51 1016.1
20210722185012 25 344 1.6 16.1 0.00 0.00 0.00 51 1016.1
20210722184513 25 346 0.0 6.4 0.00 0.00 0.00 53 1016.0
20210722184004 25 345 0.0 8.0 0.00 0.00 0.00 52 1016.0
20210722183501 25 359 1.6 8.0 0.00 0.00 0.00 54 1016.0
20210722182952 25 332 0.0 6.4 0.00 0.00 0.00 53 1015.9
20210722182445 25 101 0.0 6.4 0.00 0.00 0.00 59 1015.9
20210722181940 25 342 0.0 8.0 0.00 0.00 0.00 53 1015.9
20210722181430 25 342 0.0 12.9 0.00 0.00 0.00 55 1016.1
20210722180929 25 330 0.0 12.9 0.00 0.00 0.00 54 1016.1
20210722180424 25 308 0.0 1.6 0.00 0.00 0.00 54 1016.1
20210722175916 25 308 0.0 0.0 0.00 0.00 0.00 53 1016.1
20210722175413 25 308 0.0 4.8 0.00 0.00 0.00 56 1016.1
20210722174900 25 308 1.6 14.5 0.00 0.00 0.00 53 1016.1
20210722174400 25 300 1.6 14.5 0.00 0.00 0.00 51 1016.3
20210722173858 25 327 0.0 8.0 0.00 0.00 0.00 50 1016.3
20210722173357 25 349 1.6 12.9 0.00 0.00 0.00 50 1016.2
20210722172854 25 21 1.6 17.7 0.00 0.00 0.00 48 1016.3
20210722172354 25 329 1.6 17.7 0.00 0.00 0.00 49 1016.2
20210722171850 25 304 1.6 9.7 0.00 0.00 0.00 53 1016.2
20210722171349 25 350 1.6 17.7 0.00 0.00 0.00 52 1016.2
20210722170851 25 324 1.6 17.7 0.00 0.00 0.00 52 1016.2
20210722170342 25 323 1.6 20.9 0.00 0.00 0.00 54 1016.2
20210722165836 24 293 1.6 20.9 0.00 0.00 0.00 51 1016.2
20210722165328 24 354 0.0 6.4 0.00 0.00 0.00 54 1016.2
20210722164826 25 3 0.0 1.6 0.00 0.00 0.00 53 1016.6
20210722164325 24 359 0.0 16.1 0.00 0.00 0.00 52 1016.6
20210722163806 24 3 1.6 16.1 0.00 0.00 0.00 53 1016.6
20210722163304 24 3 0.0 8.0 0.00 0.00 0.00 55 1016.5
20210722162806 24 317 0.0 8.0 0.00 0.00 0.00 55 1016.5
20210722162254 24 317 0.0 9.7 0.00 0.00 0.00 56 1016.5
20210722161756 24 342 0.0 9.7 0.00 0.00 0.00 53 1016.5
20210722161245 24 44 0.0 6.4 0.00 0.00 0.00 54 1016.5
20210722160745 24 302 0.0 9.7 0.00 0.00 0.00 58 1016.5
20210722160242 23 325 0.0 9.7 0.00 0.00 0.00 55 1016.4
20210722155740 23 104 1.6 12.9 0.00 0.00 0.00 56 1016.4
20210722155227 23 339 1.6 17.7 0.00 0.00 0.00 53 1016.4
20210722154726 23 319 0.0 17.7 0.00 0.00 0.00 55 1016.4
20210722154222 23 359 0.0 1.6 0.00 0.00 0.00 57 1016.4
20210722153716 23 3 0.0 1.6 0.00 0.00 0.00 55 1016.4
20210722153208 23 352 0.0 1.6 0.00 0.00 0.00 54 1016.3
20210722152703 23 348 1.6 12.9 0.00 0.00 0.00 57 1016.3
20210722152202 23 350 1.6 12.9 0.00 0.00 0.00 56 1016.3
20210722151659 22 329 1.6 17.7 0.00 0.00 0.00 60 1016.3
20210722151159 22 294 1.6 17.7 0.00 0.00 0.00 57 1016.3
20210722150644 22 331 1.6 14.5 0.00 0.00 0.00 60 1016.3
20210722150145 22 316 4.8 14.5 0.00 0.00 0.00 58 1016.4
20210722145644 22 315 1.6 17.7 0.00 0.00 0.00 61 1016.4
20210722145145 21 312 0.0 17.7 0.00 0.00 0.00 63 1016.4
20210722144645 21 333 0.0 1.6 0.00 0.00 0.00 66 1016.4